ARG1719 SAAR-SABE

Flight info

Callsign ARG1719
Flight time 0h 31m
Altitude 25000
Route VASAL1C VASAL W20 MULTA W24 SNT SNT8Q
Aircraft B738/M-SDE2E3FGHIRWXY/LB1

Departure

Time 2026-04-30 21:48
Airport Rosario Islas Malvinas International Airport (SAAR)

Arrival

Time 2026-04-30 22:19
Airport Aeroparque Jorge Newbery (SABE)
Time Latitude Longitude Altitude Speed Heading
2026-04-30 21:39 -32.91633 -60.78111 92 ft 0 kts 110°
2026-04-30 21:41 -32.91632 -60.78115 92 ft 2 kts 110°
2026-04-30 21:41 -32.91625 -60.78130 92 ft 2 kts 132°
2026-04-30 21:41 -32.91613 -60.78142 92 ft 2 kts 150°
2026-04-30 21:42 -32.91600 -60.78149 92 ft 2 kts 169°
2026-04-30 21:42 -32.91584 -60.78150 92 ft 2 kts 188°
2026-04-30 21:42 -32.91576 -60.78147 92 ft 0 kts 200°
2026-04-30 21:42 -32.91570 -60.78144 92 ft 0 kts 202°
2026-04-30 21:44 -32.91571 -60.78145 92 ft 0 kts 202°
2026-04-30 21:44 -32.91581 -60.78150 92 ft 3 kts 201°
2026-04-30 21:45 -32.91612 -60.78164 92 ft 6 kts 201°
2026-04-30 21:45 -32.91666 -60.78189 92 ft 10 kts 201°
2026-04-30 21:45 -32.91724 -60.78233 92 ft 10 kts 239°
2026-04-30 21:45 -32.91748 -60.78330 92 ft 14 kts 256°
2026-04-30 21:46 -32.91770 -60.78437 92 ft 12 kts 256°
2026-04-30 21:46 -32.91789 -60.78531 92 ft 11 kts 259°
2026-04-30 21:46 -32.91765 -60.78623 92 ft 13 kts 304°
2026-04-30 21:46 -32.91718 -60.78688 92 ft 7 kts 315°
2026-04-30 21:47 -32.91687 -60.78725 92 ft 5 kts 309°
2026-04-30 21:47 -32.91674 -60.78756 92 ft 3 kts 301°
2026-04-30 21:47 -32.91660 -60.78766 92 ft 1 kts 355°
2026-04-30 21:47 -32.91656 -60.78766 92 ft 0 kts
2026-04-30 21:48 -32.91624 -60.78759 92 ft 24 kts 10°
2026-04-30 21:48 -32.91173 -60.78654 92 ft 104 kts 10°
2026-04-30 21:48 -32.90232 -60.78436 107 ft 167 kts 12°
2026-04-30 21:48 -32.89040 -60.78131 698 ft 178 kts 13°
2026-04-30 21:49 -32.87850 -60.77843 1340 ft 178 kts 11°
2026-04-30 21:49 -32.86553 -60.77562 1441 ft 200 kts 11°
2026-04-30 21:49 -32.85148 -60.77236 1620 ft 218 kts 13°
2026-04-30 21:49 -32.83757 -60.76436 2052 ft 228 kts 46°
2026-04-30 21:50 -32.83080 -60.74786 2856 ft 226 kts 78°
2026-04-30 21:50 -32.82943 -60.72925 3550 ft 231 kts 93°
2026-04-30 21:50 -32.83503 -60.71143 4209 ft 242 kts 128°
2026-04-30 21:50 -32.84804 -60.69889 4963 ft 245 kts 144°
2026-04-30 21:51 -32.86225 -60.68640 5263 ft 268 kts 140°
2026-04-30 21:51 -32.87717 -60.67249 5827 ft 278 kts 141°
2026-04-30 21:51 -32.89283 -60.65832 6469 ft 286 kts 141°
2026-04-30 21:51 -32.90876 -60.64397 7235 ft 289 kts 141°
2026-04-30 21:52 -32.92468 -60.62963 7962 ft 293 kts 141°
2026-04-30 21:52 -32.94105 -60.61490 8721 ft 296 kts 141°
2026-04-30 21:52 -32.95754 -60.60007 9467 ft 300 kts 141°
2026-04-30 21:52 -32.97422 -60.58506 10194 ft 305 kts 141°
2026-04-30 21:53 -32.99158 -60.56942 10654 ft 319 kts 142°
2026-04-30 21:53 -33.00921 -60.55356 11414 ft 322 kts 142°
2026-04-30 21:53 -33.02731 -60.53727 12114 ft 328 kts 142°
2026-04-30 21:53 -33.04554 -60.52083 12830 ft 333 kts 142°
2026-04-30 21:54 -33.06393 -60.50425 13540 ft 337 kts 142°
2026-04-30 21:54 -33.08258 -60.48742 14246 ft 342 kts 142°
2026-04-30 21:54 -33.10175 -60.47012 14960 ft 346 kts 142°
2026-04-30 21:54 -33.12078 -60.45293 15645 ft 350 kts 142°
2026-04-30 21:55 -33.14035 -60.43526 16289 ft 355 kts 142°
2026-04-30 21:55 -33.15989 -60.41759 16910 ft 359 kts 142°
2026-04-30 21:55 -33.18001 -60.39939 17527 ft 364 kts 142°
2026-04-30 21:55 -33.20036 -60.38097 18124 ft 369 kts 142°
2026-04-30 21:56 -33.22057 -60.36267 18698 ft 373 kts 142°
2026-04-30 21:56 -33.24065 -60.34446 19246 ft 378 kts 142°
2026-04-30 21:56 -33.26161 -60.32546 19794 ft 382 kts 142°
2026-04-30 21:56 -33.28285 -60.30618 20330 ft 386 kts 142°
2026-04-30 21:57 -33.31151 -60.28016 21023 ft 392 kts 142°
2026-04-30 21:57 -33.32582 -60.26716 21356 ft 395 kts 142°
2026-04-30 21:57 -33.34777 -60.24720 21853 ft 398 kts 143°
2026-04-30 21:57 -33.36998 -60.22699 22338 ft 402 kts 143°
2026-04-30 21:58 -33.39207 -60.20688 22805 ft 406 kts 143°
2026-04-30 21:58 -33.41473 -60.18624 23267 ft 410 kts 143°
2026-04-30 21:58 -33.43732 -60.16565 23714 ft 413 kts 143°
2026-04-30 21:58 -33.46017 -60.14481 24151 ft 417 kts 143°
2026-04-30 21:59 -33.48330 -60.12369 24579 ft 420 kts 143°
2026-04-30 21:59 -33.50682 -60.10221 24896 ft 423 kts 143°
2026-04-30 21:59 -33.53013 -60.08091 24908 ft 426 kts 143°
2026-04-30 22:00 -33.57766 -60.03742 24915 ft 438 kts 143°
2026-04-30 22:00 -33.62695 -59.99226 24912 ft 453 kts 143°
2026-04-30 22:00 -33.65233 -59.96897 24912 ft 459 kts 143°
2026-04-30 22:01 -33.67796 -59.94544 24914 ft 465 kts 143°
2026-04-30 22:01 -33.70369 -59.92181 24917 ft 470 kts 143°
2026-04-30 22:01 -33.72857 -59.89893 24920 ft 475 kts 143°
2026-04-30 22:01 -33.75533 -59.87430 24924 ft 480 kts 143°
2026-04-30 22:02 -33.78190 -59.84982 24928 ft 484 kts 143°
2026-04-30 22:02 -33.80901 -59.82484 24931 ft 488 kts 143°
2026-04-30 22:02 -33.83584 -59.80009 24933 ft 492 kts 143°
2026-04-30 22:02 -33.86282 -59.77517 24825 ft 487 kts 143°
2026-04-30 22:03 -33.88961 -59.75041 24251 ft 478 kts 143°
2026-04-30 22:03 -33.91548 -59.72648 23646 ft 471 kts 143°
2026-04-30 22:03 -33.94114 -59.70274 23027 ft 464 kts 143°
2026-04-30 22:03 -33.96653 -59.67921 22412 ft 457 kts 143°
2026-04-30 22:04 -33.99176 -59.65584 21800 ft 450 kts 143°
2026-04-30 22:04 -34.01621 -59.63316 21208 ft 443 kts 142°
2026-04-30 22:04 -34.06396 -59.58882 20044 ft 430 kts 142°
2026-04-30 22:05 -34.08766 -59.56679 19463 ft 424 kts 142°
2026-04-30 22:05 -34.11092 -59.54516 18892 ft 418 kts 142°
2026-04-30 22:05 -34.13344 -59.52419 18356 ft 411 kts 142°
2026-04-30 22:05 -34.15606 -59.50313 17802 ft 405 kts 142°
2026-04-30 22:06 -34.17794 -59.48273 17260 ft 399 kts 142°
2026-04-30 22:06 -34.21696 -59.43698 16179 ft 384 kts 119°
2026-04-30 22:06 -34.22681 -59.40769 15662 ft 374 kts 102°
2026-04-30 22:07 -34.23170 -59.37746 15146 ft 369 kts 101°
2026-04-30 22:07 -34.23929 -59.34778 14630 ft 365 kts 109°
2026-04-30 22:07 -34.24859 -59.31952 14130 ft 360 kts 109°
2026-04-30 22:07 -34.25729 -59.29135 13637 ft 355 kts 108°
2026-04-30 22:08 -34.26550 -59.26364 13154 ft 350 kts 108°
2026-04-30 22:08 -34.27364 -59.23618 12677 ft 345 kts 108°
2026-04-30 22:08 -34.28171 -59.20882 12200 ft 340 kts 108°
2026-04-30 22:08 -34.28954 -59.18215 11735 ft 335 kts 108°
2026-04-30 22:09 -34.29719 -59.15600 11279 ft 331 kts 108°
2026-04-30 22:09 -34.30471 -59.13024 10829 ft 327 kts 108°
2026-04-30 22:09 -34.31229 -59.10421 10373 ft 323 kts 108°
2026-04-30 22:09 -34.31959 -59.07914 10044 ft 315 kts 108°
2026-04-30 22:10 -34.32666 -59.05484 9916 ft 301 kts 108°
2026-04-30 22:10 -34.33357 -59.03104 9522 ft 298 kts 108°
2026-04-30 22:10 -34.34044 -59.00734 9142 ft 295 kts 108°
2026-04-30 22:10 -34.34721 -58.98396 8768 ft 292 kts 108°
2026-04-30 22:11 -34.36034 -58.93861 8045 ft 286 kts 109°
2026-04-30 22:11 -34.36690 -58.91594 7682 ft 283 kts 109°
2026-04-30 22:11 -34.37329 -58.89380 7328 ft 280 kts 109°
2026-04-30 22:12 -34.37973 -58.87151 6971 ft 277 kts 109°
2026-04-30 22:12 -34.38604 -58.84964 6620 ft 275 kts 109°
2026-04-30 22:12 -34.39232 -58.82787 6270 ft 272 kts 109°
2026-04-30 22:12 -34.39849 -58.80644 5926 ft 270 kts 109°
2026-04-30 22:13 -34.40456 -58.78534 5586 ft 267 kts 109°
2026-04-30 22:13 -34.41072 -58.76394 5242 ft 265 kts 109°
2026-04-30 22:13 -34.41671 -58.74307 4907 ft 262 kts 109°
2026-04-30 22:13 -34.42260 -58.72257 4578 ft 260 kts 108°
2026-04-30 22:14 -34.42853 -58.70190 4246 ft 258 kts 108°
2026-04-30 22:14 -34.43433 -58.68170 3961 ft 253 kts 108°
2026-04-30 22:14 -34.43993 -58.66217 3851 ft 242 kts 108°
2026-04-30 22:14 -34.44539 -58.64310 3633 ft 234 kts 108°
2026-04-30 22:15 -34.45055 -58.62506 3387 ft 225 kts 108°
2026-04-30 22:15 -34.45559 -58.60743 3155 ft 217 kts 108°
2026-04-30 22:15 -34.46104 -58.59112 2981 ft 199 kts 121°
2026-04-30 22:15 -34.46852 -58.57804 2999 ft 185 kts 123°
2026-04-30 22:16 -34.47567 -58.56520 2823 ft 185 kts 123°
2026-04-30 22:16 -34.48268 -58.55270 2556 ft 170 kts 123°
2026-04-30 22:17 -34.50084 -58.52026 1909 ft 152 kts 123°
2026-04-30 22:17 -34.50669 -58.50980 1703 ft 151 kts 123°
2026-04-30 22:17 -34.51847 -58.48875 1292 ft 150 kts 123°
2026-04-30 22:18 -34.52425 -58.47841 1091 ft 149 kts 123°
2026-04-30 22:18 -34.53583 -58.45767 690 ft 148 kts 123°
2026-04-30 22:19 -34.54736 -58.43719 269 ft 145 kts 123°
2026-04-30 22:19 -34.55289 -58.42725 100 ft 140 kts 122°
2026-04-30 22:19 -34.56023 -58.41393 27 ft 38 kts 124°
2026-04-30 22:20 -34.56159 -58.41153 27 ft 31 kts 124°
2026-04-30 22:20 -34.56234 -58.40879 27 ft 7 kts 97°
2026-04-30 22:20 -34.56237 -58.40826 27 ft 2 kts 93°
2026-04-30 22:21 -34.56237 -58.40813 27 ft 0 kts 93°
2026-04-30 22:21 -34.56239 -58.40780 27 ft 5 kts 95°
2026-04-30 22:21 -34.56231 -58.40756 27 ft 2 kts 19°
2026-04-30 22:21 -34.56217 -58.40757 27 ft 1 kts 331°
2026-04-30 22:22 -34.56205 -58.40771 27 ft 7 kts 314°
2026-04-30 22:22 -34.56172 -58.40824 27 ft 7 kts 289°
2026-04-30 22:22 -34.56157 -58.40908 27 ft 10 kts 298°
2026-04-30 22:22 -34.56117 -58.40974 27 ft 8 kts 311°
2026-04-30 22:23 -34.56087 -58.41027 27 ft 6 kts 313°
2026-04-30 22:23 -34.56026 -58.41043 27 ft 9 kts 355°
2026-04-30 22:23 -34.55966 -58.41079 27 ft 12 kts 316°
2026-04-30 22:23 -34.55917 -58.41149 27 ft 8 kts 310°
2026-04-30 22:24 -34.55884 -58.41196 27 ft 7 kts 310°
2026-04-30 22:24 -34.55856 -58.41242 27 ft 5 kts 297°
2026-04-30 22:24 -34.55839 -58.41265 27 ft 3 kts 347°
2026-04-30 22:24 -34.55826 -58.41264 27 ft 0 kts 14°
2026-04-30 22:25 -34.55822 -58.41262 27 ft 0 kts 14°
2026-04-30 22:25 -34.55817 -58.41260 27 ft 0 kts 24°
2026-04-30 22:25 -34.55813 -58.41257 27 ft 1 kts 33°
2026-04-30 22:25 -34.55809 -58.41254 27 ft 0 kts 36°
2026-04-30 22:26 -34.55804 -58.41249 27 ft 0 kts 36°